Regional Weather Roundup
Issued by NWS

Home | Current Version | Previous Version | Text Only | Print | Product List | Glossary Off
Versions: 1 2 3 4 5 6 7 8 9 10 11 12 13 14 15 16 17 18 19 20 21 22 23 24 25 26 27 28 29 30 31 32 33 34 35 36 37 38 39 40 41 42 43 44 45 46 47 48 49 50

450
ASUS43 KLMK 260210
RWRKY
KENTUCKY REGIONAL WEATHER ROUNDUP
NATIONAL WEATHER SERVICE LOUISVILLE KY
1000 PM EDT WED APR 25 2018

NOTE "FAIR" INDICATES FEW OR NO CLOUDS BELOW 12,000 FEET
WITH NO SIGNIFICANT WEATHER AND/OR OBSTRUCTIONS TO VISIBILITY.

KYZ001>023-026-027-061>063-070>075-260300-
WESTERN AND SOUTH CENTRAL KENTUCKY

CITY           SKY/WX    TMP DP  RH WIND       PRES   REMARKS
PADUCAH        LGT RAIN  58  54  86 SW6       29.94R
HENDERSON      FAIR      62  54  74 NE3       29.94R
OWENSBORO      FAIR      64  50  60 N3        29.94S
HOPKINSVILLE   FAIR      62  57  83 CALM      29.93R
BOWLING GREEN  FAIR      64  51  62 SW3       29.94S
GLASGOW        CLOUDY    58  52  81 CALM      29.94S
$$

KYZ024-025-028>034-038-045-046-053-260300-
NORTH CENTRAL KENTUCKY

CITY           SKY/WX    TMP DP  RH WIND       PRES   REMARKS
LOUISVILLE/SDF CLOUDY    62  46  55 N8        29.93R
LOUISVILLE/LOU FAIR      61  47  59 N6        29.94R
FORT KNOX      MOCLDY    59  50  72 CALM      29.94S
$$

KYZ035>037-039>044-047>052-055>060-089>105-260300-
NORTHEAST KENTUCKY

CITY           SKY/WX    TMP DP  RH WIND       PRES   REMARKS
LEXINGTON      FAIR      57  48  72 CALM      29.94R
COVINGTON      CLOUDY    55  43  63 NW5       29.93R
FRANKFORT      FAIR      56  47  71 NW3       29.93R
$$

KYZ054-064>069-076>088-106>120-260300-
SOUTHEAST KENTUCKY

CITY           SKY/WX    TMP DP  RH WIND       PRES   REMARKS
JACKSON        FAIR      52  50  93 CALM      29.95R
LONDON         FAIR      51  51 100 CALM      29.96R FOG
SOMERSET       FAIR      54  50  87 CALM      29.97R
MIDDLESBORO    FAIR      51  51 100 CALM      29.97R
MONTICELLO     NOT AVBL
$$





USA.gov is the U.S. government's official web portal to all federal, state and local government web resources and services.